Find Saudi-OSCAR-50

NORAD ID: 27607 Int'l Des: 2002-058 Owner: KACST Country: SA operational
LEOCIRCULAR

Live-Position

3D-Globus wird geladen...

Über Saudi-OSCAR-50

Beschreibung wird geladen...

Nächste Überflüge

Passes for default location (London). Set your location on the main map for personalized predictions.

Höhenverlauf

Loading altitude history...

Zweizeiliger Elementsatz

1 27607U 02058C 26132.34773995 .00000635 00000-0 92778-4 0 9999
2 27607 64.5523 239.8634 0075634 269.0204 90.2235 14.82969432259142
Epoch: 12. Mai 2026 • Age: 11 hours

Aktueller Status

Höhe 591.8 km
Geschwindigkeit 7.59 km/s
Subsatellitenpunkt -59.37°S, 24.51°E
Startdatum 20. Dez. 2002
Alter 23.3 years
Typ other

Technische Details

Klassifizierung Payload
Masse 15.00 kg
Trockenmasse 15.00 kg
Gesamtmasse 15.00 kg
Länge 0.20 m
Durchmesser 0.20 m
Spannweite 0.20 m
Form Box
Hersteller KACST
Bus-Typ Saudisat
Phasenstatus In Orbit
Besitzer/Staat KACST/SA

Most Searched